N5GC-2 Weather Reports


Display with metric or nautical units.
time (UTC)temp
F
wind
direction
speed
MPH
gust
MPH
rain 1hr
in
rain 24hr
in
rain mn
in
humidity
%
barometer
mb
20260505022039 71 136 1.0 2.0 0.00 0.00 0.00 50
20260505021536 71 150 0.0 0.0 0.00 0.00 0.00 50
20260505021033 71 165 0.0 0.0 0.00 0.00 0.00 49
20260505020532 71 123 1.0 2.0 0.00 0.00 0.00 49
20260505020030 71 133 1.0 2.0 0.00 0.00 0.00 49
20260505015527 72 153 0.0 0.0 0.00 0.00 0.00 49
20260505015024 72 131 0.0 2.0 0.00 0.00 0.00 49
20260505014520 72 150 0.0 0.0 0.00 0.00 0.00 49
20260505014018 72 126 1.0 2.0 0.00 0.00 0.00 48
20260505013515 72 148 0.0 0.0 0.00 0.00 0.00 48
20260505013012 73 163 0.0 0.0 0.00 0.00 0.00 48
20260505012510 73 168 0.0 0.0 0.00 0.00 0.00 48
20260505012007 73 155 0.0 0.0 0.00 0.00 0.00 48
20260505011502 73 130 0.0 0.0 0.00 0.00 0.00 47
20260505011000 73 147 0.0 0.0 0.00 0.00 0.00 47
20260505010455 74 168 0.0 0.0 0.00 0.00 0.00 47
20260505005951 74 127 1.0 2.0 0.00 0.00 0.00 46
20260505005448 74 187 0.0 0.0 0.00 0.00 0.00 47
20260505004946 74 235 0.0 2.0 0.00 0.00 0.00 46
20260505004442 74 148 0.0 0.0 0.00 0.00 0.00 46
20260505003939 75 148 2.0 2.0 0.00 0.00 0.00 46
20260505003436 75 119 1.0 2.0 0.00 0.00 0.00 46
20260505002933 75 127 0.0 2.0 0.00 0.00 0.00 45
20260505002429 75 195 0.0 0.0 0.00 0.00 0.00 45
20260505001927 76 130 0.0 0.0 0.00 0.00 0.00 45
20260505001425 76 149 0.0 0.0 0.00 0.00 0.00 44
20260505000921 76 172 1.0 2.0 0.00 0.00 0.00 43
20260505000420 76 163 0.0 2.0 0.00 0.00 0.00 43
20260504235916 77 152 1.0 2.0 0.00 0.00 0.00 43
20260504235413 77 127 1.0 2.0 0.00 0.00 0.00 43
20260504234909 77 224 1.0 2.0 0.00 0.00 0.00 42
20260504234407 78 157 3.0 5.0 0.00 0.00 0.00 42
20260504233903 78 243 2.0 2.0 0.00 0.00 0.00 42
20260504233359 78 166 2.0 2.0 0.00 0.00 0.00 41
20260504232856 78 132 0.0 2.0 0.00 0.00 0.00 41
20260504232353 78 97 3.0 5.0 0.00 0.00 0.00 40
20260504231850 78 64 1.0 2.0 0.00 0.00 0.00 40
20260504231346 79 97 0.0 0.0 0.00 0.00 0.00 41
20260504230843 79 234 2.0 5.0 0.00 0.00 0.00 40
20260504230341 79 129 3.0 5.0 0.00 0.00 0.00 40
20260504225839 80 139 3.0 5.0 0.00 0.00 0.00 40
20260504225335 80 117 3.0 5.0 0.00 0.00 0.00 38
20260504224833 81 105 4.0 8.0 0.00 0.00 0.00 38
20260504224329 81 166 3.0 5.0 0.00 0.00 0.00 38
20260504223826 82 182 6.0 8.0 0.00 0.00 0.00 37
20260504223322 82 158 2.0 2.0 0.00 0.00 0.00 36
20260504222818 82 139 1.0 2.0 0.00 0.00 0.00 36
20260504222315 82 121 1.0 2.0 0.00 0.00 0.00 35
20260504221814 83 271 2.0 2.0 0.00 0.00 0.00 35
20260504221310 83 339 1.0 2.0 0.00 0.00 0.00 35
20260504220807 83 87 2.0 2.0 0.00 0.00 0.00 35
20260504220304 83 175 2.0 2.0 0.00 0.00 0.00 35
20260504215801 83 144 0.0 2.0 0.00 0.00 0.00 35
20260504215257 83 139 3.0 5.0 0.00 0.00 0.00 34
20260504214753 83 149 3.0 5.0 0.00 0.00 0.00 35
20260504214250 83 91 3.0 5.0 0.00 0.00 0.00 34
20260504213747 83 104 2.0 5.0 0.00 0.00 0.00 35
20260504213243 83 241 3.0 5.0 0.00 0.00 0.00 34
20260504212740 83 88 2.0 2.0 0.00 0.00 0.00 35
20260504212237 83 194 3.0 5.0 0.00 0.00 0.00 35
20260504211735 83 138 6.0 8.0 0.00 0.00 0.00 34
20260504211230 83 171 2.0 5.0 0.00 0.00 0.00 36
20260504210728 84 50 5.0 8.0 0.00 0.00 0.00 34
20260504210225 84 155 3.0 5.0 0.00 0.00 0.00 34
20260504205722 83 230 5.0 8.0 0.00 0.00 0.00 34
20260504205220 83 168 2.0 2.0 0.00 0.00 0.00 35
20260504204718 83 168 4.0 5.0 0.00 0.00 0.00 34
20260504204216 83 294 2.0 2.0 0.00 0.00 0.00 34
20260504203715 83 202 2.0 2.0 0.00 0.00 0.00 34
20260504203212 82 196 3.0 5.0 0.00 0.00 0.00 34
20260504202712 83 225 3.0 5.0 0.00 0.00 0.00 34
20260504202209 83 215 2.0 2.0 0.00 0.00 0.00 33
20260504201706 83 92 3.0 5.0 0.00 0.00 0.00 35
20260504201204 83 65 2.0 2.0 0.00 0.00 0.00 35
20260504200701 83 351 3.0 5.0 0.00 0.00 0.00 34
20260504200157 83 74 3.0 5.0 0.00 0.00 0.00 33
20260504195653 82 338 3.0 5.0 0.00 0.00 0.00 33
20260504195149 82 99 2.0 2.0 0.00 0.00 0.00 33
20260504194646 82 175 1.0 2.0 0.00 0.00 0.00 34
20260504194142 82 85 8.0 13.0 0.00 0.00 0.00 35
20260504193639 82 176 4.0 5.0 0.00 0.00 0.00 35
20260504193137 82 47 1.0 2.0 0.00 0.00 0.00 36
20260504192635 82 62 3.0 5.0 0.00 0.00 0.00 34
20260504192133 82 213 6.0 8.0 0.00 0.00 0.00 34
20260504191631 82 236 5.0 8.0 0.00 0.00 0.00 33
20260504191127 82 338 3.0 5.0 0.00 0.00 0.00 34
20260504190623 82 158 3.0 5.0 0.00 0.00 0.00 36
20260504190120 82 259 3.0 5.0 0.00 0.00 0.00 33
20260504185616 82 176 7.0 10.0 0.00 0.00 0.00 33
20260504185113 82 90 2.0 5.0 0.00 0.00 0.00 34
20260504184608 82 16 4.0 5.0 0.00 0.00 0.00 34
20260504184104 82 185 2.0 2.0 0.00 0.00 0.00 35
20260504183601 82 143 0.0 0.0 0.00 0.00 0.00 35
20260504183059 82 161 1.0 2.0 0.00 0.00 0.00 35
20260504182556 82 174 4.0 8.0 0.00 0.00 0.00 35
20260504182053 82 97 4.0 8.0 0.00 0.00 0.00 35
20260504181550 82 93 5.0 8.0 0.00 0.00 0.00 36
20260504181048 82 213 4.0 5.0 0.00 0.00 0.00 35
20260504180547 82 115 6.0 10.0 0.00 0.00 0.00 34
20260504180046 81 90 2.0 2.0 0.00 0.00 0.00 35
20260504175542 81 287 5.0 8.0 0.00 0.00 0.00 35
20260504175039 81 184 0.0 2.0 0.00 0.00 0.00 36
20260504174537 81 218 2.0 2.0 0.00 0.00 0.00 34
20260504174033 81 201 3.0 5.0 0.00 0.00 0.00 35
20260504173531 80 158 3.0 5.0 0.00 0.00 0.00 37
20260504173028 80 97 3.0 5.0 0.00 0.00 0.00 34
20260504172524 80 144 4.0 5.0 0.00 0.00 0.00 34
20260504172021 80 173 1.0 2.0 0.00 0.00 0.00 34
20260504171518 80 311 3.0 5.0 0.00 0.00 0.00 36
20260504171015 80 210 3.0 5.0 0.00 0.00 0.00 35
20260504170510 80 119 2.0 5.0 0.00 0.00 0.00 35
20260504160431 78 164 4.0 5.0 0.00 0.00 0.00 36
20260504150854 73 196 1.0 2.0 0.00 0.00 0.00 40
20260504150351 72 205 3.0 5.0 0.00 0.00 0.00 42
20260504141321 68 237 2.0 2.0 0.00 0.00 0.00 49
20260504140817 68 207 3.0 5.0 0.00 0.00 0.00 49
20260504140313 67 213 3.0 5.0 0.00 0.00 0.00 53
20260504130742 62 170 0.0 2.0 0.00 0.00 0.00 63
20260504130238 62 134 0.0 0.0 0.00 0.00 0.00 63
20260504120202 53 150 0.0 0.0 0.00 0.00 0.00 88
20260504110629 53 150 0.0 0.0 0.00 0.00 0.00 89
20260504110125 53 153 0.0 0.0 0.00 0.00 0.00 88
20260504100551 54 153 0.0 0.0 0.00 0.00 0.00 84
20260504081944 56 151 0.0 0.0 0.00 0.00 0.00 74
20260504081442 56 152 0.0 0.0 0.00 0.00 0.00 73
20260504080937 57 155 0.0 0.0 0.00 0.00 0.00 72
20260504080434 57 155 0.0 0.0 0.00 0.00 0.00 72
20260504070402 60 156 0.0 0.0 0.00 0.00 0.00 64
20260504050749 66 148 0.0 0.0 0.00 0.00 0.00 56
20260504050247 66 154 0.0 0.0 0.00 0.00 0.00 55
20260504045745 66 150 0.0 0.0 0.00 0.00 0.00 54
20260504045244 67 149 0.0 0.0 0.00 0.00 0.00 54
20260504044743 67 142 0.0 0.0 0.00 0.00 0.00 53
20260504044240 67 153 0.0 0.0 0.00 0.00 0.00 53
20260504043737 67 158 0.0 0.0 0.00 0.00 0.00 53
20260504043233 67 148 0.0 0.0 0.00 0.00 0.00 52
20260504042731 67 80 2.0 2.0 0.00 0.00 0.00 52
20260504042228 68 156 0.0 0.0 0.00 0.00 0.00 52
20260504041724 68 158 0.0 0.0 0.00 0.00 0.00 52
20260504041220 68 123 1.0 2.0 0.00 0.00 0.00 52
20260504040716 68 150 0.0 0.0 0.00 0.00 0.00 51
20260504040214 68 181 0.0 0.0 0.00 0.00 0.00 51
20260504035710 68 150 0.0 0.0 0.00 0.00 0.00 51
20260504035208 68 149 0.0 0.0 0.00 0.00 0.00 51
20260504034705 68 151 0.0 0.0 0.00 0.00 0.00 51
20260504034201 68 165 0.0 0.0 0.00 0.00 0.00 51
20260504033659 68 166 0.0 0.0 0.00 0.00 0.00 51
20260504033156 68 175 1.0 2.0 0.00 0.00 0.00 50
20260504032653 68 126 2.0 5.0 0.00 0.00 0.00 50
20260504032150 68 136 1.0 2.0 0.00 0.00 0.00 50
20260504031647 68 148 0.0 0.0 0.00 0.00 0.00 50
20260504031143 68 162 0.0 0.0 0.00 0.00 0.00 50
20260504030640 68 150 0.0 0.0 0.00 0.00 0.00 50
20260504030137 68 203 0.0 0.0 0.00 0.00 0.00 51
20260504025634 68 166 0.0 0.0 0.00 0.00 0.00 51
20260504025130 69 154 0.0 0.0 0.00 0.00 0.00 51
20260504024628 69 155 0.0 0.0 0.00 0.00 0.00 50
20260504024124 69 168 0.0 0.0 0.00 0.00 0.00 50
20260504023621 70 178 0.0 0.0 0.00 0.00 0.00 49
20260504023117 70 164 0.0 0.0 0.00 0.00 0.00 48
20260504022614 70 166 0.0 0.0 0.00 0.00 0.00 48